Date String (YYYY-MM-DD hh:mm:ss) UTC,Instrument flags,Ambient pressure (hPa),Sample flow (lpm),Bypass flow (lpm),Sample temperature (°C),Ambient temperature (°C),ASC tube jacket temperature (°C),LED temperature (°C),Box temperature (°C),Sample RH (%),Span deviation,Mass concentration (μg/m³),Mass concentration (μg/m³),Mass concentration (μg/m³)
DateTimeUTC,F1_M11,P_M11,Q1_M11,Q2_M11,T1_M11,T2_M11,T3_M11,T4_M11,T5_M11,U1_M11,ZSPAN_M11,X0_M11,X2_M11,X1_M11
2021-12-31 10:00:00,,0808.0,4.99,0.00,21.8,21.7,00.0,30.8,23.4,12.2,0000.0,0000.54,0000.27,0000.18
2021-12-31 10:01:00,,0808.0,5.01,0.00,21.7,21.5,00.0,30.8,23.3,12.2,0000.0,0000.63,0000.29,0000.18
2021-12-31 10:02:00,,0808.0,5.01,0.00,21.6,21.3,00.0,30.8,23.2,12.2,0000.0,0000.64,0000.30,0000.18
2021-12-31 10:03:00,,0808.0,4.99,0.00,21.6,21.1,00.0,30.8,23.1,12.3,0000.0,0000.66,0000.31,0000.18
2021-12-31 10:04:00,,0808.0,5.01,0.00,21.5,20.9,00.0,30.8,23.1,12.3,0000.0,0000.64,0000.30,0000.18
2021-12-31 10:05:00,,0808.0,4.99,0.00,21.5,20.8,00.0,30.7,23.0,12.4,0000.0,0000.63,0000.30,0000.17
2021-12-31 10:06:00,,0808.0,5.01,0.00,21.4,20.7,00.0,30.7,22.9,12.4,0000.0,0000.62,0000.29,0000.17
2021-12-31 10:07:00,,0808.0,5.00,0.00,21.4,20.7,00.0,30.7,22.9,12.4,0000.0,0000.59,0000.28,0000.16
2021-12-31 10:08:00,,0808.0,4.99,0.00,21.3,20.6,00.0,30.7,22.9,12.4,0000.0,0000.54,0000.25,0000.16
2021-12-31 10:09:00,,0808.0,5.01,0.00,21.3,20.6,00.0,30.6,22.8,12.5,0000.0,0000.51,0000.25,0000.16
2021-12-31 10:10:00,,0808.0,4.99,0.00,21.3,20.5,00.0,30.6,22.8,12.4,0000.0,0000.51,0000.24,0000.16
2021-12-31 10:11:00,,0808.0,5.02,0.00,21.2,20.6,00.0,30.6,22.8,12.4,0000.0,0000.42,0000.23,0000.16
2021-12-31 10:12:00,,0808.0,5.00,0.00,21.3,21.4,00.0,30.6,23.1,12.3,0000.0,0000.36,0000.22,0000.15
2021-12-31 10:13:00,,0808.1,5.00,0.00,21.5,22.4,00.0,30.6,23.5,12.2,0000.0,0000.35,0000.21,0000.15
2021-12-31 10:14:00,,0808.0,5.01,0.00,21.7,22.8,00.0,30.7,23.7,12.1,0000.0,0000.31,0000.19,0000.15
2021-12-31 10:15:00,,0808.0,5.00,0.00,21.7,22.3,00.0,30.7,23.6,12.1,0000.0,0000.34,0000.20,0000.15
2021-12-31 10:16:00,,0808.0,4.99,0.00,21.7,22.0,00.0,30.7,23.4,12.1,0000.0,0000.43,0000.22,0000.15
2021-12-31 10:17:00,,0808.0,5.00,0.00,21.6,21.6,00.0,30.7,23.2,12.2,0000.0,0000.49,0000.24,0000.15
2021-12-31 10:18:00,,0808.0,5.00,0.00,21.5,21.3,00.0,30.7,23.1,12.3,0000.0,0000.50,0000.25,0000.15
2021-12-31 10:19:00,,0808.0,4.99,0.00,21.5,21.1,00.0,30.6,23.1,12.3,0000.0,0000.47,0000.24,0000.15
2021-12-31 10:20:00,,0808.0,5.00,0.00,21.4,21.0,00.0,30.6,23.0,12.3,0000.0,0000.45,0000.23,0000.15
2021-12-31 10:21:00,,0808.0,5.01,0.00,21.4,20.8,00.0,30.6,22.9,12.4,0000.0,0000.58,0000.24,0000.15
2021-12-31 10:22:00,,0808.0,4.98,0.00,21.3,20.6,00.0,30.6,22.8,12.4,0000.0,0000.63,0000.25,0000.15
2021-12-31 10:23:00,,0808.0,5.02,0.00,21.3,20.5,00.0,30.5,22.7,12.4,0000.0,0000.70,0000.25,0000.15
2021-12-31 10:24:00,,0808.0,4.99,0.00,21.2,20.4,00.0,30.5,22.7,12.4,0000.0,0000.70,0000.25,0000.14
2021-12-31 10:25:00,,0807.8,5.00,0.00,21.2,20.4,00.0,30.5,22.6,12.5,0000.0,0000.73,0000.26,0000.15
2021-12-31 10:26:00,,0807.8,4.99,0.00,21.1,20.3,00.0,30.4,22.6,12.5,0000.0,0000.71,0000.25,0000.15
2021-12-31 10:27:00,,0807.8,5.01,0.00,21.1,20.4,00.0,30.4,22.6,12.6,0000.0,0000.64,0000.24,0000.15
2021-12-31 10:28:00,,0807.7,5.00,0.00,21.2,21.3,00.0,30.4,22.9,12.5,0000.0,0000.57,0000.22,0000.15
2021-12-31 10:29:00,,0807.8,5.00,0.00,21.4,22.3,00.0,30.5,23.3,12.4,0000.0,0000.55,0000.21,0000.15
2021-12-31 10:30:00,,0807.7,5.00,0.00,21.6,22.8,00.0,30.5,23.5,12.2,0000.0,0000.54,0000.21,0000.14
2021-12-31 10:31:00,,0807.7,5.00,0.00,21.6,22.4,00.0,30.5,23.4,12.1,0000.0,0000.53,0000.21,0000.15
2021-12-31 10:32:00,,0807.7,5.00,0.00,21.6,22.0,00.0,30.6,23.3,12.2,0000.0,0000.42,0000.20,0000.14
2021-12-31 10:33:00,,0807.7,5.02,0.00,21.5,21.7,00.0,30.6,23.1,12.2,0000.0,0000.38,0000.20,0000.15
2021-12-31 10:34:00,,0807.7,4.99,0.00,21.5,21.4,00.0,30.6,23.0,12.2,0000.0,0000.30,0000.19,0000.15
2021-12-31 10:35:00,,0807.7,5.00,0.00,21.4,21.2,00.0,30.5,23.0,12.3,0000.0,0000.35,0000.22,0000.15
2021-12-31 10:36:00,,0807.7,5.02,0.00,21.4,21.0,00.0,30.5,22.9,12.3,0000.0,0000.35,0000.22,0000.15
2021-12-31 10:37:00,,0807.7,5.01,0.00,21.3,20.9,00.0,30.5,22.9,12.3,0000.0,0000.34,0000.22,0000.15
2021-12-31 10:38:00,,0807.7,5.00,0.00,21.3,20.8,00.0,30.5,22.8,12.3,0000.0,0000.42,0000.23,0000.15
2021-12-31 10:39:00,,0807.7,5.00,0.00,21.3,20.7,00.0,30.5,22.8,12.4,0000.0,0000.43,0000.23,0000.15
2021-12-31 10:40:00,,0807.7,5.00,0.00,21.2,20.6,00.0,30.4,22.7,12.4,0000.0,0000.44,0000.24,0000.15
2021-12-31 10:41:00,,0807.7,5.02,0.00,21.2,20.6,00.0,30.4,22.7,12.5,0000.0,0000.51,0000.25,0000.15
2021-12-31 10:42:00,,0807.6,4.98,0.00,21.1,20.5,00.0,30.4,22.6,12.5,0000.0,0000.54,0000.27,0000.14
2021-12-31 10:43:00,,0807.7,5.00,0.00,21.1,20.4,00.0,30.4,22.6,12.5,0000.0,0000.55,0000.27,0000.14
2021-12-31 10:44:00,,0807.7,5.00,0.00,21.1,20.8,00.0,30.4,22.7,12.5,0000.0,0000.54,0000.27,0000.14
2021-12-31 10:45:00,,0807.7,5.00,0.00,21.3,21.8,00.0,30.4,23.1,12.4,0000.0,0000.55,0000.27,0000.14
2021-12-31 10:46:00,,0807.6,5.00,0.00,21.5,22.7,00.0,30.5,23.5,12.3,0000.0,0000.52,0000.26,0000.15
2021-12-31 10:47:00,,0807.5,5.00,0.00,21.6,22.6,00.0,30.5,23.5,12.2,0000.0,0000.56,0000.26,0000.14
2021-12-31 10:48:00,,0807.4,4.99,0.00,21.6,22.2,00.0,30.5,23.4,12.2,0000.0,0000.64,0000.27,0000.15
2021-12-31 10:49:00,,0807.4,5.00,0.00,21.5,21.9,00.0,30.5,23.2,12.2,0000.0,0000.55,0000.25,0000.14
2021-12-31 10:50:00,,0807.4,5.00,0.00,21.5,21.6,00.0,30.5,23.2,12.3,0000.0,0000.54,0000.25,0000.14
2021-12-31 10:51:00,,0807.4,5.00,0.00,21.5,21.4,00.0,30.5,23.1,12.3,0000.0,0001.53,0000.25,0000.14
2021-12-31 10:52:00,,0807.4,5.01,0.00,21.5,21.2,00.0,30.5,23.1,12.3,0000.0,0002.32,0000.24,0000.14
2021-12-31 10:53:00,,0807.4,4.99,0.00,21.4,21.1,00.0,30.5,23.0,12.3,0000.0,0002.27,0000.22,0000.14
2021-12-31 10:54:00,,0807.4,5.00,0.00,21.4,20.9,00.0,30.5,23.0,12.3,0000.0,0002.28,0000.22,0000.14
2021-12-31 10:55:00,,0807.4,5.02,0.00,21.3,20.8,00.0,30.5,22.9,12.4,0000.0,0002.28,0000.22,0000.14
2021-12-31 10:56:00,,0807.3,4.99,0.00,21.3,20.7,00.0,30.5,22.9,12.4,0000.0,0002.35,0000.21,0000.14
2021-12-31 10:57:00,,0807.3,5.01,0.00,21.3,20.7,00.0,30.5,22.8,12.4,0000.0,0002.35,0000.20,0000.14
2021-12-31 10:58:00,,0807.3,4.99,0.00,21.2,20.6,00.0,30.4,22.8,12.5,0000.0,0002.29,0000.18,0000.13
2021-12-31 10:59:00,,0807.3,5.01,0.00,21.2,20.6,00.0,30.4,22.7,12.5,0000.0,0002.23,0000.18,0000.13
